date,time,DOY,Ta_1_1_1,RH_1_1_1,LWin_1_1_1,LWout_1_1_1,SWin_1_1_1,SWout_1_1_1,PPFD_1_1_1,SWC_1_1_1,Ts_1_1_1
[yyyy-mm-dd],[HH:MM],[ddd.ddd],[K],[%],[W+1m-2],[W+1m-2],[W+1m-2],[W+1m-2],[µmol+1m-2s-1],[m+3m-3],[K]
2013-05-16,00:30,136.020,288.59466666666668,39.953000000000003,-9999.0,-9999.0,0.47966666666666663,-4.5573333333333341,1.00000000000000002E-003,-9999.0,273.15999999999991
2013-05-16,01:00,136.041,288.24400000000003,41.270333333333340,-9999.0,-9999.0,0.66166666666666663,-4.6186666666666660,0.0000000000000000,-9999.0,273.15999999999991
2013-05-16,01:30,136.062,287.76433333333335,43.070333333333330,-9999.0,-9999.0,0.31533333333333335,-4.1120000000000001,0.0000000000000000,-9999.0,273.15999999999991
2013-05-16,02:00,136.083,287.49566666666669,44.530666666666669,-9999.0,-9999.0,0.30366666666666670,-4.3996666666666657,0.0000000000000000,-9999.0,273.15999999999991
2013-05-16,02:30,136.104,287.12299999999999,46.089999999999996,-9999.0,-9999.0,0.61866666666666681,-4.3049999999999988,2.99999999999999963E-003,-9999.0,273.15999999999991
2013-05-16,03:00,136.124,286.90066666666667,47.222666666666676,-9999.0,-9999.0,0.56633333333333336,-4.4993333333333343,0.0000000000000000,-9999.0,273.15999999999991
2013-05-16,03:30,136.145,286.23366666666669,49.713333333333331,-9999.0,-9999.0,0.44700000000000006,-4.6786666666666674,0.0000000000000000,-9999.0,273.15999999999991
2013-05-16,04:00,136.166,285.65833333333347,51.722666666666676,-9999.0,-9999.0,0.62700000000000011,-4.6473333333333340,7.83333333333333381E-002,-9999.0,273.15999999999991
2013-05-16,04:30,136.187,285.20533333333339,53.601333333333329,-9999.0,-9999.0,1.0500000000000000,-1.3550000000000002,5.3376666666666663,-9999.0,273.15999999999991
2013-05-16,05:00,136.208,284.53166666666669,55.879000000000005,-9999.0,-9999.0,7.4816666666666674,33.303666666666665,53.188999999999993,-9999.0,273.15999999999991
2013-05-16,05:30,136.229,284.04033333333336,57.141666666666659,-9.7899999999999991,-9999.0,17.814000000000000,101.51766666666666,165.38566666666671,-9999.0,273.15999999999991
2013-05-16,06:00,136.249,283.75533333333328,58.598000000000006,-8.6049999999999986,-9999.0,28.726333333333336,185.13366666666661,315.66666666666674,-9999.0,273.15999999999991
2013-05-16,06:30,136.270,283.57466666666664,60.104333333333329,-6.9176666666666664,-9999.0,39.566000000000003,277.16133333333329,490.66499999999996,-9999.0,273.15999999999991
2013-05-16,07:00,136.291,283.79033333333336,55.644666666666666,-5.6039999999999992,-9999.0,50.129999999999995,372.83000000000004,679.26466666666670,-9999.0,273.15999999999991
2013-05-16,07:30,136.312,284.06933333333330,53.577666666666673,-3.5730000000000004,-9999.0,60.494666666666674,469.27466666666675,870.40966666666679,-9999.0,273.15999999999991
2013-05-16,08:00,136.333,284.60966666666678,51.563666666666670,-1.4033333333333331,-9999.0,71.048666666666676,561.39700000000005,1055.7439999999999,-9999.0,273.15999999999991
2013-05-16,08:30,136.354,285.10200000000003,48.987999999999992,0.19433333333333333,-9999.0,80.214000000000027,645.93399999999997,1230.3143333333333,-9999.0,273.15999999999991
2013-05-16,09:00,136.374,285.85600000000005,45.967666666666666,2.8066666666666662,-9999.0,89.437333333333314,723.71100000000013,1392.6030000000001,-9999.0,273.15999999999991
2013-05-16,09:30,136.395,286.50766666666669,42.756333333333338,4.8046666666666660,-9999.0,97.228999999999999,790.06966666666654,1536.1180000000002,-9999.0,273.15999999999991
2013-05-16,10:00,136.416,287.45233333333340,39.098333333333329,5.6443333333333339,-9999.0,102.85366666666667,845.56633333333309,1662.6083333333333,-9999.0,273.15999999999991
2013-05-16,10:30,136.437,287.61500000000007,37.828333333333340,8.6766666666666676,-9999.0,108.79233333333333,895.39300000000014,1766.8553333333334,-9999.0,273.15999999999991
2013-05-16,11:00,136.458,288.37833333333327,33.378999999999991,9.9686666666666657,-9999.0,111.12666666666669,924.29600000000016,1828.8646666666671,-9999.0,273.15999999999991
2013-05-16,11:30,136.479,288.64133333333331,30.995666666666672,12.623666666666669,-9999.0,114.15866666666665,955.62666666666644,1892.6753333333329,-9999.0,273.15999999999991
2013-05-16,12:00,136.499,289.26266666666669,28.664333333333332,11.911666666666667,-9999.0,113.89066666666666,967.03433333333305,1918.5509999999995,-9999.0,273.15999999999991
2013-05-16,12:30,136.520,289.53500000000003,26.750999999999994,13.354999999999999,-9999.0,108.87733333333333,941.53900000000010,1863.9656666666665,-9999.0,273.15999999999991
2013-05-16,13:00,136.541,289.93400000000014,24.906000000000002,12.708666666666666,-9999.0,108.28300000000000,949.57099999999991,1877.3990000000001,-9999.0,273.15999999999991
2013-05-16,13:30,136.562,289.88766666666669,23.745000000000001,10.380333333333331,-9999.0,100.08899999999998,878.24099999999999,1741.5946666666664,-9999.0,273.15999999999991
2013-05-16,14:00,136.583,290.04200000000014,21.733999999999991,10.452333333333334,-9999.0,101.01700000000001,877.04833333333329,1733.5706666666667,-9999.0,273.15999999999991
2013-05-16,14:30,136.604,290.20400000000001,21.147666666666669,7.8373333333333326,-9999.0,94.570666666666668,821.21000000000015,1627.3329999999996,-9999.0,273.15999999999991
2013-05-16,15:00,136.624,290.52533333333338,20.358000000000004,5.9640000000000013,-9999.0,87.409333333333350,751.76966666666658,1482.1926666666666,-9999.0,273.15999999999991
2013-05-16,15:30,136.645,290.90833333333336,19.747999999999998,1.9596666666666671,-9999.0,80.204999999999984,685.89733333333345,1350.5843333333330,-9999.0,273.15999999999991
2013-05-16,16:00,136.666,290.34733333333338,20.746666666666663,0.29566666666666669,-9999.0,72.015666666666661,598.32933333333324,1172.8203333333333,-9999.0,273.15999999999991
2013-05-16,16:30,136.687,290.35833333333346,21.181000000000001,-3.6846666666666668,-9999.0,62.759333333333323,508.29000000000008,996.33566666666661,-9999.0,273.15999999999991
2013-05-16,17:00,136.708,289.83133333333336,22.140999999999998,-6.2083333333333313,-9999.0,45.214333333333322,358.69833333333332,701.11066666666682,-9999.0,273.15999999999991
2013-05-16,17:30,136.729,289.52466666666663,23.222666666666665,-7.3409999999999993,-9999.0,30.176666666666673,234.04700000000000,459.13566666666668,-9999.0,273.15999999999991
2013-05-16,18:00,136.749,289.05066666666670,24.447333333333326,-8.1410000000000018,-9999.0,33.097999999999999,231.43566666666672,430.32766666666680,-9999.0,273.15999999999991
2013-05-16,18:30,136.770,288.47166666666669,25.574666666666666,-9.3399999999999981,-9999.0,10.799000000000001,81.882000000000005,171.79766666666669,-9999.0,273.15999999999991
2013-05-16,19:00,136.791,287.91299999999995,27.674999999999997,-9.3774999999999995,-9999.0,6.1693333333333351,38.343666666666664,82.186333333333351,-9999.0,273.15999999999991
2013-05-16,19:30,136.812,287.12000000000006,29.335999999999999,-9999.0,-9999.0,1.3863333333333336,3.7763333333333322,18.891666666666669,-9999.0,273.15999999999991
2013-05-16,20:00,136.833,286.31900000000013,31.644666666666662,-9999.0,-9999.0,0.36733333333333346,-4.4959999999999987,1.3090000000000002,-9999.0,273.15999999999991
2013-05-16,20:30,136.854,285.70033333333333,33.742333333333342,-9.5962499999999995,-9999.0,-6.70000000000000040E-002,-3.4529999999999998,5.00000000000000097E-003,-9999.0,273.15999999999991
2013-05-16,21:00,136.874,285.18600000000004,37.515333333333338,-9.2843749999999989,-9999.0,-0.20066666666666666,-3.0793333333333330,0.0000000000000000,-9999.0,273.15999999999991
2013-05-16,21:30,136.895,284.79033333333342,41.989333333333327,-9.3200000000000003,-9999.0,-0.17499999999999993,-3.3719999999999999,0.0000000000000000,-9999.0,273.15999999999991
2013-05-16,22:00,136.916,284.23066666666671,46.373666666666686,-8.6203333333333330,-9999.0,-0.21500000000000000,-2.9316666666666675,0.0000000000000000,-9999.0,273.15999999999991
2013-05-16,22:30,136.937,283.68666666666672,49.099333333333341,-9.0804761904761886,-9999.0,5.39999999999999994E-002,-4.1469999999999994,1.00000000000000002E-003,-9999.0,273.15999999999991
2013-05-16,23:00,136.958,283.33000000000004,49.192333333333345,-9999.0,-9999.0,0.45133333333333331,-5.0766666666666671,0.0000000000000000,-9999.0,273.15999999999991
2013-05-16,23:30,136.979,283.00066666666669,49.269999999999996,-9999.0,-9999.0,0.37666666666666671,-5.0763333333333325,0.0000000000000000,-9999.0,273.15999999999991
2013-05-17,00:00,137.000,282.79833333333340,49.474666666666650,-9999.0,-9999.0,0.31500000000000006,-4.4236666666666649,0.0000000000000000,-9999.0,273.15999999999991
